Home > Weather > Phuket > Past weeks

Flag for Thailand Weather for the Past 2 Weeks in Phuket, Thailand

Now
82 °F

Broken clouds.


Feels Like: 87 °F
Forecast: 80 / 90 °F
Wind: 16 mph from East

Location: Phuket Airport

Current Time: Feb 11, 2016 at 10:19:47 AM

Latest Report: Feb 11, 2016 at 9:30 AM


Visibility: 5 mi

Pressure: 29.86 "Hg

Humidity: 70%

Dew point: 72 °F

Location of PhuketLocation

Historic Weather in Phuket — Graph

°F

Phuket Temperature Yesterday

Maximum temperature yesterday: 91 °F (at 3:00 PM)
Minimum temperature yesterday: 77 °F (at 1:00 AM)
Average temperature yesterday: 82 °F

High & Low Weather Summary for the Past Weeks

 TemperatureHumidityPressure
High93 °F (Jan 28, 2:30 PM)94% (Jan 28, 8:30 PM)29.98 "Hg (Jan 28, 8:30 PM)
Low72 °F (Jan 28, 9:00 PM)46% (Feb 10, 2:00 PM)29.74 "Hg (Feb 5, 4:00 PM)
Average82 °F71%29.87 "Hg
* Reported Jan 27 8:00 AM — Feb 11 8:30 AM, Phuket, Weather by CustomWeather, © 2016

Note: Actual official high and low records may vary slightly from our data, if they occured in-between our weather recording intervals... More about our weather records

Advertising

Phuket Weather History for the Previous 24 Hours

 ConditionsComfort  
Time TempWeatherWind HumidityBarometerVisibility
8:30 AM
Thu, Feb 11
82 °FPartly sunny.14 mph66%29.86 "Hg5 mi
8:00 AM81 °FPartly sunny.9 mph70%29.83 "Hg5 mi
7:30 AM79 °FPartly sunny.8 mph74%29.83 "Hg5 mi
6:30 AM79 °FPassing clouds.12 mph74%29.80 "Hg5 mi
6:00 AM79 °FPassing clouds.7 mph74%29.80 "Hg5 mi
5:30 AM79 °FPassing clouds.6 mph74%29.80 "Hg5 mi
4:30 AM79 °FPassing clouds.7 mph74%29.80 "Hg5 mi
4:00 AM81 °FPassing clouds.9 mph70%29.80 "Hg5 mi
3:30 AM81 °FPassing clouds.10 mph70%29.80 "Hg5 mi
3:00 AM81 °FPassing clouds.10 mph70%29.80 "Hg5 mi
2:30 AM81 °FPassing clouds.7 mph70%29.83 "Hg5 mi
2:00 AM81 °FPassing clouds.7 mph70%29.83 "Hg5 mi
1:30 AM81 °FPassing clouds.6 mph70%29.86 "Hg5 mi
1:00 AM81 °FPassing clouds.8 mph70%29.86 "Hg5 mi
12:30 AM79 °FPassing clouds.8 mph74%29.86 "Hg5 mi
12:00 AM79 °FPassing clouds.No wind74%29.86 "Hg5 mi
11:30 PM
Wed, Feb 10
81 °FPassing clouds.No wind70%29.86 "Hg5 mi
11:00 PM81 °FPassing clouds.5 mph70%29.89 "Hg5 mi
10:30 PM81 °FPassing clouds.5 mph70%29.89 "Hg5 mi
10:00 PM82 °FPassing clouds.6 mph66%29.89 "Hg5 mi
9:30 PM82 °FPassing clouds.6 mph66%29.86 "Hg5 mi
9:00 PM82 °FPassing clouds.5 mph66%29.89 "Hg5 mi
8:30 PM82 °FPassing clouds.5 mph70%29.89 "Hg5 mi
8:00 PM82 °FPassing clouds.5 mph70%29.86 "Hg5 mi
7:30 PM82 °FPassing clouds.2 mph70%29.86 "Hg5 mi
7:00 PM82 °FPassing clouds.7 mph70%29.86 "Hg5 mi
6:30 PM82 °FPartly sunny.8 mph70%29.83 "Hg5 mi
6:00 PM84 °FPartly sunny.9 mph66%29.83 "Hg5 mi
5:30 PM86 °FPartly sunny.10 mph62%29.83 "Hg5 mi
5:00 PM86 °FPartly sunny.13 mph59%29.83 "Hg6 mi
4:30 PM88 °FPartly sunny.14 mph55%29.83 "Hg6 mi
4:00 PM91 °FPartly sunny.8 mph46%29.80 "Hg6 mi
3:30 PM90 °FPartly sunny.10 mph49%29.80 "Hg6 mi
3:00 PM91 °FPartly sunny.12 mph46%29.80 "Hg5 mi
2:30 PM90 °FPartly sunny.12 mph49%29.83 "Hg5 mi
2:00 PM90 °FPartly sunny.15 mph46%29.83 "Hg5 mi
1:30 PM88 °FPartly sunny.15 mph52%29.86 "Hg5 mi
1:00 PM86 °FPartly sunny.15 mph55%29.86 "Hg5 mi
12:30 PM86 °FPartly sunny.15 mph55%29.86 "Hg5 mi
12:00 PM86 °FPartly sunny.15 mph55%29.89 "Hg5 mi
11:30 AM86 °FPartly sunny.17 mph55%29.89 "Hg5 mi
11:00 AM84 °FPartly sunny.18 mph58%29.89 "Hg5 mi
10:30 AM84 °FPartly sunny.15 mph58%29.92 "Hg5 mi
10:00 AM82 °FPartly sunny.15 mph62%29.92 "Hg5 mi
Weather by CustomWeather, © 2016

See weather overviewHow to use our weather pages